Location: Ferchesar
(52.6477°N, 12.4298°E)
Time: 16:53:40
(UTC+01:00)

Vanguard 2 - Visible Passes

Search period start: 03 December 2022 00:00
Search period end: 13 December 2022 00:00
Orbit: 553 x 2933 km, 32.9° (Epoch: 02 December)

Date Brightness Start Highest point End Pass type
(mag) Time Alt. Az. Time Alt. Az. Time Alt. Az.
03 Dec 11.2 16:52:32 10° SSW 17:02:00 24° SSE 17:13:42 10° ESE visible
03 Dec 10.9 18:58:17 10° SW 19:10:54 35° S 19:18:34 26° SE visible
03 Dec 10.9 21:06:58 10° WSW 21:19:54 34° SSW 21:19:54 34° SSW visible
03 Dec 11.7 23:18:40 10° WSW 23:21:14 14° WSW 23:21:14 14° WSW visible
04 Dec 11.1 17:08:25 10° SSW 17:18:24 27° SSE 17:31:03 10° ESE visible
04 Dec 10.9 19:14:54 10° SW 19:27:34 36° S 19:34:34 27° SE visible
04 Dec 11.0 21:24:02 10° WSW 21:35:54 31° SSW 21:35:54 31° SSW visible
04 Dec 11.8 23:36:52 10° WSW 23:37:14 10° WSW 23:37:14 10° WSW visible
05 Dec 11.0 17:24:34 10° SSW 17:34:53 30° SSE 17:48:13 10° ESE visible
05 Dec 10.9 19:31:38 10° WSW 19:44:15 36° S 19:50:36 28° SSE visible
05 Dec 11.2 21:41:15 10° WSW 21:51:56 28° SW 21:51:56 28° SW visible
06 Dec 10.9 17:40:56 10° SW 17:51:27 32° SSE 18:05:12 10° ESE visible
06 Dec 10.9 19:48:28 10° WSW 20:00:57 34° S 20:06:40 29° SSE visible
06 Dec 11.3 21:58:41 10° WSW 22:08:01 24° SW 22:08:01 24° SW visible
07 Dec 10.9 17:57:26 10° SW 18:08:04 33° S 18:21:29 11° ESE visible
07 Dec 11.0 20:05:26 10° WSW 20:17:38 32° SSW 20:22:49 28° SSE visible
07 Dec 11.5 22:16:28 10° WSW 22:24:11 20° SW 22:24:11 20° SW visible
08 Dec 10.9 18:14:06 10° SW 18:24:45 33° S 18:37:42 12° ESE visible
08 Dec 11.1 20:22:32 10° WSW 20:34:18 29° SSW 20:39:03 26° S visible
08 Dec 11.6 22:34:53 10° WSW 22:40:25 15° SW 22:40:25 15° SW visible
09 Dec 11.0 16:24:23 10° SSW 16:32:40 26° SSE 16:43:59 10° ESE visible
09 Dec 10.9 18:30:52 10° WSW 18:41:27 33° S 18:54:01 13° SE visible
09 Dec 11.2 20:39:50 10° WSW 20:50:56 26° SSW 20:55:23 23° S visible
09 Dec 11.8 22:54:54 10° WSW 22:56:45 11° SW 22:56:45 11° SW visible
10 Dec 10.9 16:40:47 10° SW 16:49:14 28° SSE 17:00:57 10° ESE visible
10 Dec 11.0 18:47:45 10° WSW 18:58:10 31° S 19:10:28 12° SE visible
10 Dec 11.4 20:57:23 10° WSW 21:07:31 22° SSW 21:11:51 20° S visible
11 Dec 10.9 16:57:20 10° SW 17:05:52 29° S 17:17:47 10° ESE visible
11 Dec 11.1 19:04:47 10° WSW 19:14:53 29° SSW 19:27:03 12° SE visible
11 Dec 11.5 21:15:24 10° WSW 21:24:05 18° SSW 21:28:27 16° SSW visible
12 Dec 10.9 17:14:02 10° SW 17:22:33 29° S 17:34:27 10° SE visible
12 Dec 11.2 19:21:58 10° WSW 19:31:36 26° SSW 19:43:48 10° SSE visible
12 Dec 11.7 21:34:22 10° WSW 21:40:37 13° SW 21:45:15 12° SSW visible
